Location: Kaltenbach
(49.2000°N, 7.7500°E)
Time: 21:28:22
(UTC+00:00)

Okean-O - Pass Details

Date: 24 January 2020
Orbit: 639 x 640 km, 98.2° (Epoch: 17 February)

Event Time Altitude Azimuth Distance (km) Brightness Sun altitude
Rises 17:02:01 0° 157° (SSE) 2,934 6.0 -8.3°
Reaches altitude 10° 17:04:13 10° 155° (SSE) 2,029 5.2 -8.7°
Maximum altitude 17:08:37 69° 73° (ENE) 689 2.6 -9.3°
Drops below altitude 10° 17:13:02 10° 350° (N) 2,045 5.1 -10.0°
Sets 17:15:16 0° 348° (NNW) 2,959 6.0 -10.4°
